User: anonymous   Login
Location: Unspecified
(0.0000°N, 0.0000°E)
Time: 08:49:47
(UTC+00:00)
Language:

OBJECT C - Orbit

View from above orbital plane
View from above orbital plane
View from above satellite
View from above satellite

Ground track
Ground track

The orbit is defined by the following mean orbital elements,

1 64530U          26145.58188067 +.00000000 +00000-0 +47481-3 0 00009
2 64530  97.4592 261.5153 0003383 261.2588  98.8267 15.26289075    03
Epoch (UTC): 25 May 2026 13:57:54
Eccentricity: 0.0003383
inclination: 97.4592°
perigee height: 485 km
apogee height: 489 km
right ascension of ascending node: 261.5153°
argument of perigee: 261.2588°
revolutions per day: 15.26289075
mean anomaly at epoch: 98.8267°

The dashed part of the orbit path shows where the satellite is in the earth's shadow,  

DLR